DW7729 Weather Reports


Display with metric or nautical units.
time (UTC)temp
F
wind
direction
speed
MPH
gust
MPH
rain 1hr
in
rain 24hr
in
rain mn
in
humidity
%
barometer
mb
20180624130103 65 349 3.0 8.0 0.00 0.00 0.00 85 1010.2
20180624125557 65 274 2.0 8.0 0.00 0.00 0.00 85 1010.3
20180624125048 65 236 1.0 6.0 0.00 0.00 0.00 85 1010.2
20180624124558 65 292 1.0 7.0 0.00 0.00 0.00 84 1009.7
20180624124052 65 221 4.0 11.0 0.00 0.00 0.00 85 1010.1
20180624123604 65 211 4.0 11.0 0.00 0.00 0.00 85 1010.0
20180624123055 65 192 4.0 6.0 0.00 0.00 0.00 85 1010.1
20180624122546 65 289 1.0 6.0 0.00 0.00 0.00 85 1010.1
20180624122059 65 251 3.0 9.0 0.00 0.00 0.00 86 1010.1
20180624121551 65 221 5.0 9.0 0.00 0.00 0.00 85 1010.1
20180624121102 64 225 3.0 9.0 0.00 0.00 0.00 85 1009.8
20180624120554 64 255 2.0 9.0 0.00 0.00 0.00 86 1009.6
20180624120106 64 252 3.0 9.0 0.00 0.00 0.00 86 1009.8
20180624115555 64 254 3.0 9.0 0.00 0.00 0.00 86 1009.8
20180624115046 64 228 4.0 7.0 0.00 0.00 0.00 86 1009.5
20180624114559 64 246 2.0 7.0 0.00 0.00 0.00 86 1009.5
20180624114052 63 287 1.0 7.0 0.00 0.00 0.00 86 1009.2
20180624113602 63 309 2.0 5.0 0.00 0.00 0.00 86 1009.4
20180624113055 63 295 1.0 5.0 0.00 0.00 0.00 86 1009.2
20180624112546 63 279 1.0 5.0 0.00 0.00 0.00 86 1009.6
20180624112057 63 323 0.0 7.0 0.00 0.00 0.00 86 1009.4
20180624111553 63 300 2.0 7.0 0.00 0.00 0.00 86 1009.4
20180624111043 63 213 3.0 7.0 0.00 0.00 0.00 86 1009.3
20180624110554 64 305 1.0 5.0 0.00 0.00 0.00 86 1009.6
20180624110046 63 270 2.0 5.0 0.00 0.00 0.00 86 1009.6
20180624105556 63 257 2.0 7.0 0.00 0.00 0.00 86 1009.4
20180624105047 63 261 2.0 7.0 0.00 0.00 0.00 86 1009.3
20180624104600 64 220 1.0 5.0 0.00 0.00 0.00 87 1009.8
20180624104050 64 261 1.0 5.0 0.00 0.00 0.00 88 1009.7
20180624103541 64 242 1.0 5.0 0.00 0.00 0.00 87 1009.5
20180624103053 64 271 1.0 4.0 0.00 0.00 0.00 87 1009.5
20180624102545 64 279 0.0 5.0 0.00 0.00 0.00 87 1009.4
20180624102057 64 308 1.0 5.0 0.00 0.00 0.00 88 1009.1
20180624101548 64 312 1.0 5.0 0.00 0.00 0.00 88 1009.4
20180624101100 64 261 0.0 5.0 0.00 0.00 0.00 88 1009.4
20180624100548 64 259 0.0 5.0 0.00 0.00 0.00 88 1009.2
20180624100041 64 270 1.0 6.0 0.00 0.00 0.00 88 1009.4
20180624095553 64 247 3.0 6.0 0.00 0.00 0.00 87 1009.2
20180624095045 64 321 1.0 4.0 0.00 0.00 0.00 88 1009.3
20180624094557 64 313 2.0 6.0 0.00 0.00 0.00 88 1009.1
20180624094051 64 226 4.0 6.0 0.00 0.00 0.00 88 1008.8
20180624093544 64 285 0.0 4.0 0.00 0.00 0.00 88 1008.9
20180624093053 65 284 0.0 4.0 0.00 0.00 0.00 88 1008.9
20180624092548 65 285 0.0 4.0 0.00 0.00 0.00 89 1008.8
20180624091043 65 284 0.0 3.0 0.00 0.00 0.00 90 1008.8
20180624090555 65 284 0.0 3.0 0.00 0.00 0.00 90 1008.6
20180624090048 65 284 0.0 4.0 0.00 0.00 0.00 90 1008.8
20180624085539 65 283 0.0 4.0 0.00 0.00 0.00 90 1008.7
20180624085051 65 283 0.0 5.0 0.00 0.00 0.00 91 1008.7
20180624084543 65 278 2.0 5.0 0.00 0.00 0.00 91 1008.9
20180624084056 65 277 1.0 7.0 0.00 0.00 0.00 91 1008.9
20180624083547 65 275 1.0 7.0 0.00 0.00 0.00 91 1008.9
20180624083038 65 277 1.0 11.0 0.00 0.00 0.00 92 1008.8
20180624082550 65 243 3.0 11.0 0.00 0.00 0.00 92 1009.0
20180624082039 66 256 3.0 6.0 0.00 0.00 0.00 92 1008.8
20180624081553 66 261 0.0 7.0 0.00 0.00 0.00 92 1009.0
20180624081044 66 267 2.0 7.0 0.00 0.00 0.00 92 1008.8
20180624080537 66 250 0.0 6.0 0.00 0.00 0.00 92 1009.1
20180624080050 66 280 0.0 6.0 0.00 0.00 0.00 92 1009.0
20180624075542 66 265 2.0 6.0 0.00 0.00 0.00 92 1008.9
20180624075053 66 249 3.0 7.0 0.00 0.00 0.00 91 1009.0
20180624074545 66 253 1.0 7.0 0.00 0.00 0.00 92 1008.5
20180624074041 66 201 2.0 6.0 0.00 0.00 0.00 91 1008.8
20180624073551 66 263 2.0 6.0 0.00 0.00 0.00 91 1008.7
20180624073042 66 270 2.0 7.0 0.00 0.00 0.00 91 1008.6
20180624072533 66 268 0.0 7.0 0.00 0.00 0.00 91 1008.6
20180624072043 66 252 3.0 5.0 0.00 0.00 0.00 91 1008.5
20180624071536 66 234 1.0 5.0 0.00 0.01 0.00 91 1008.6
20180624071050 66 230 1.0 7.0 0.00 0.01 0.00 91 1008.5
20180624070542 66 296 2.0 7.0 0.00 0.01 0.00 91 1008.1
20180624070053 66 265 0.0 4.0 0.00 0.01 0.00 90 1008.6
20180624065542 66 265 1.0 4.0 0.00 0.01 0.00 90 1008.7
20180624065034 67 270 0.0 3.0 0.00 0.01 0.00 90 1008.6
20180624064545 67 270 0.0 3.0 0.00 0.01 0.00 90 1008.5
20180624064035 67 270 0.0 0.0 0.00 0.01 0.00 90 1008.6
20180624063548 67 270 0.0 4.0 0.00 0.01 0.00 90 1008.6
20180624063039 67 276 1.0 4.0 0.00 0.01 0.00 90 1008.7
20180624062530 67 244 0.0 5.0 0.00 0.01 0.00 90 1008.6
20180624062043 67 240 0.0 5.0 0.00 0.01 0.00 90 1008.9
20180624061535 67 235 3.0 5.0 0.00 0.01 0.00 90 1008.5
20180624061047 67 272 1.0 4.0 0.00 0.01 0.00 90 1009.0
20180624060539 67 273 0.0 3.0 0.00 0.01 0.00 89 1008.7
20180624060031 67 274 0.0 0.0 0.00 0.01 0.00 89 1008.8
20180624055541 67 274 0.0 2.0 0.00 0.01 0.00 89 1008.8
20180624055037 67 275 0.0 2.0 0.00 0.01 0.00 90 1008.6
20180624054530 68 274 0.0 3.0 0.00 0.01 0.00 89 1008.6
20180624054039 68 274 1.0 3.0 0.00 0.01 0.00 89 1008.6
20180624053531 68 275 0.0 1.0 0.00 0.01 0.00 89 1008.7
20180624053043 68 275 0.0 1.0 0.00 0.01 0.00 89 1008.7
20180624052535 68 275 0.0 3.0 0.00 0.01 0.00 89 1008.5
20180624052046 68 275 0.0 5.0 0.00 0.01 0.00 89 1008.5
20180624051555 68 275 2.0 5.0 0.00 0.01 0.00 89 1008.4
20180624051044 68 261 0.0 0.0 0.00 0.01 0.00 89 1008.3
20180624050534 68 262 0.0 0.0 0.00 0.01 0.00 88 1008.4
20180624050131 68 261 0.0 0.0 0.00 0.01 0.00 88 1008.3
20180624045624 68 262 0.0 0.0 0.00 0.01 0.00 88 1008.3
20180624045135 68 261 0.0 1.0 0.00 0.01 0.00 88 1008.2
20180624044626 68 262 0.0 3.0 0.00 0.01 0.00 87 1008.2
20180624044120 69 261 0.0 4.0 0.00 0.01 0.00 87 1008.3
20180624043630 69 262 1.0 4.0 0.00 0.01 0.00 87 1008.3
20180624043120 69 230 0.0 5.0 0.00 0.01 0.00 87 1008.4
20180624042631 69 280 0.0 5.0 0.00 0.01 0.00 87 1008.3
20180624042122 69 266 0.0 5.0 0.00 0.01 0.00 87 1008.6
20180624041633 69 246 2.0 5.0 0.00 0.01 0.00 87 1008.5
20180624041124 69 312 0.0 3.0 0.00 0.01 0.00 87 1008.3
20180624040616 69 312 0.0 3.0 0.00 0.01 0.00 86 1008.2
20180624040129 69 312 0.0 1.0 0.00 0.01 0.00 87 1008.2
20180624035620 69 312 0.0 3.0 0.00 0.01 0.00 87 1008.5
20180624035134 69 313 0.0 4.0 0.00 0.01 0.00 87 1008.4
20180624034624 69 292 0.0 4.0 0.00 0.01 0.00 87 1008.4
20180624034117 69 267 0.0 4.0 0.00 0.01 0.00 87 1008.0
20180624033627 69 271 0.0 4.0 0.00 0.01 0.00 87 1008.1
20180624033123 69 271 1.0 4.0 0.00 0.01 0.00 87 1007.9
20180624032616 70 279 1.0 4.0 0.00 0.01 0.00 86 1008.1
20180624032129 70 282 1.0 4.0 0.00 0.01 0.00 86 1008.3
20180624031622 70 280 0.0 4.0 0.00 0.01 0.00 86 1008.2
20180624031134 70 280 1.0 4.0 0.00 0.01 0.00 86 1008.2
20180624030624 70 333 1.0 2.0 0.00 0.01 0.00 86 1008.0
20180624030118 70 333 0.0 2.0 0.00 0.01 0.00 85 1008.4
20180624025629 70 334 0.0 3.0 0.00 0.01 0.00 85 1008.2
20180624025123 70 334 1.0 3.0 0.00 0.01 0.00 85 1008.3
20180624024612 70 331 0.0 4.0 0.00 0.01 0.00 86 1008.4
20180624024123 70 333 1.0 5.0 0.00 0.01 0.00 85 1008.1
20180624023616 70 316 0.0 5.0 0.00 0.01 0.00 85 1008.0
20180624023126 70 330 0.0 2.0 0.00 0.01 0.00 86 1008.0
20180624022618 70 329 0.0 2.0 0.00 0.01 0.00 85 1008.2
20180624022131 70 330 0.0 2.0 0.00 0.01 0.00 85 1007.7
20180624021622 70 329 0.0 1.0 0.00 0.01 0.00 85 1007.7
20180624021114 70 329 0.0 3.0 0.00 0.01 0.00 85 1008.2
20180624020628 70 329 1.0 3.0 0.00 0.01 0.00 84 1007.5
20180624020118 70 351 0.0 3.0 0.00 0.01 0.00 83 1007.5
20180624015628 70 351 1.0 3.0 0.00 0.01 0.00 83 1007.4
20180624015119 70 355 0.0 3.0 0.00 0.01 0.00 83 1007.8
20180624014613 70 355 1.0 3.0 0.00 0.01 0.00 83 1007.7
20180624014126 71 356 0.0 2.0 0.00 0.01 0.00 82 1007.5
20180624013616 71 356 0.0 5.0 0.00 0.01 0.00 82 1007.4
20180624013129 71 356 0.0 6.0 0.00 0.01 0.00 82 1007.2
20180624012619 71 353 1.0 6.0 0.00 0.01 0.00 81 1007.5
20180624012112 71 352 0.0 3.0 0.00 0.01 0.00 81 1007.4
20180624011626 71 352 0.0 4.0 0.00 0.01 0.00 81 1007.3
20180624011119 71 357 1.0 4.0 0.00 0.01 0.00 81 1007.3
20180624010612 72 344 0.0 5.0 0.00 0.01 0.00 80 1007.3
20180624010124 72 344 1.0 5.0 0.00 0.01 0.00 80 1006.9
20180624005614 72 327 2.0 5.0 0.00 0.01 0.00 80 1007.4
20180624005109 72 337 3.0 5.0 0.00 0.01 0.00 80 1007.1
20180624004621 72 310 2.0 5.0 0.00 0.01 0.00 79 1007.1
20180624004111 72 307 1.0 6.0 0.00 0.01 0.00 78 1007.1
20180624003625 73 293 1.0 6.0 0.00 0.01 0.00 78 1006.9
20180624003116 73 312 0.0 5.0 0.00 0.01 0.00 79 1006.9
20180624002607 73 320 1.0 5.0 0.00 0.01 0.00 79 1007.1
20180624002119 73 318 2.0 5.0 0.00 0.01 0.00 78 1006.8
20180624001608 73 308 0.0 5.0 0.00 0.01 0.00 79 1006.9
20180624001120 73 307 2.0 5.0 0.00 0.01 0.00 79 1006.7
20180624000612 73 4 0.0 8.0 0.00 0.01 0.00 78 1006.5
20180624000108 73 5 3.0 8.0 0.00 0.01 0.00 78 1006.6
20180623235619 73 344 4.0 7.0 0.00 0.01 0.00 78 1006.5
20180623235113 73 359 2.0 5.0 0.00 0.01 0.00 77 1006.7
20180623234625 74 341 2.0 5.0 0.00 0.01 0.00 76 1006.9
20180623234115 74 355 2.0 8.0 0.00 0.01 0.00 76 1006.6
20180623233608 74 294 4.0 8.0 0.00 0.01 0.00 75 1006.5
20180623233119 74 308 3.0 8.0 0.00 0.01 0.00 76 1006.9
20180623232612 74 337 2.0 8.0 0.00 0.01 0.00 75 1006.4
20180623232104 74 333 2.0 8.0 0.00 0.01 0.00 75 1006.6
20180623231617 74 303 4.0 9.0 0.00 0.01 0.00 76 1006.6
20180623231108 74 359 4.0 9.0 0.00 0.01 0.00 76 1006.4
20180623230621 74 310 4.0 8.0 0.00 0.01 0.00 77 1006.4
20180623230113 74 237 2.0 8.0 0.00 0.01 0.00 77 1006.5
20180623225602 74 309 2.0 12.0 0.00 0.01 0.00 77 1006.3
20180623225115 74 307 4.0 12.0 0.00 0.01 0.00 77 1006.1
20180623224609 74 358 5.0 8.0 0.00 0.01 0.00 77 1006.1
20180623224101 74 352 0.0 7.0 0.00 0.01 0.00 77 1006.0
20180623223613 74 347 3.0 8.0 0.00 0.01 0.00 76 1006.1
20180623223105 75 281 3.0 8.0 0.00 0.01 0.00 76 1006.2
20180623222617 75 268 2.0 10.0 0.00 0.01 0.00 77 1006.2
20180623222110 75 266 4.0 10.0 0.00 0.01 0.00 75 1006.5
20180623221605 75 342 1.0 10.0 0.00 0.06 0.00 77 1006.1
20180623221119 75 298 3.0 10.0 0.00 0.06 0.00 76 1006.1
20180623220609 75 335 3.0 9.0 0.00 0.06 0.00 76 1006.6
20180623220120 75 276 4.0 9.0 0.00 0.06 0.00 75 1006.9
20180623215609 75 336 2.0 12.0 0.00 0.06 0.00 74 1006.3
20180623215100 75 275 4.0 13.0 0.00 0.06 0.00 73 1006.4
20180623214613 75 303 5.0 13.0 0.00 0.06 0.00 75 1006.2
20180623214104 76 228 4.0 11.0 0.00 0.06 0.00 75 1006.5
20180623213616 76 287 3.0 11.0 0.00 0.06 0.00 74 1005.9
20180623213106 76 268 5.0 13.0 0.00 0.06 0.00 73 1006.6
20180623212615 76 280 4.0 13.0 0.00 0.06 0.00 73 1006.4
20180623212108 77 257 6.0 12.0 0.00 0.06 0.00 72 1006.2
20180623211559 77 358 2.0 10.0 0.00 0.15 0.00 72 1006.1
20180623211114 77 357 4.0 10.0 0.00 0.15 0.00 72 1006.4
20180623210606 77 262 4.0 8.0 0.00 0.15 0.00 72 1006.2
20180623210118 77 335 3.0 8.0 0.00 0.15 0.00 74 1006.5
20180623205609 77 177 1.0 7.0 0.00 0.15 0.00 72 1006.4
20180623205059 77 349 3.0 8.0 0.00 0.15 0.00 73 1006.2
20180623204612 77 245 1.0 8.0 0.00 0.15 0.00 73 1006.1
20180623204105 77 216 3.0 7.0 0.00 0.15 0.00 74 1006.0
20180623203616 77 310 3.0 6.0 0.00 0.15 0.00 75 1006.3
20180623203110 76 276 1.0 6.0 0.00 0.15 0.00 74 1005.8
20180623202604 76 259 1.0 6.0 0.00 0.15 0.00 75 1005.9
20180623202114 76 340 1.0 5.0 0.00 0.15 0.00 77 1005.9
20180623201606 76 331 2.0 7.0 0.00 0.20 0.00 77 1005.6
20180623201058 76 318 2.0 7.0 0.00 0.20 0.00 76 1005.7
20180623200610 76 347 0.0 3.0 0.00 0.20 0.00 76 1005.5
20180623200101 76 347 0.0 5.0 0.00 0.20 0.00 76 1005.3
20180623195615 77 347 2.0 5.0 0.00 0.20 0.00 75 1005.9
20180623195106 77 256 1.0 5.0 0.00 0.20 0.00 75 1005.4
20180623194556 77 257 1.0 5.0 0.00 0.20 0.00 76 1005.1
20180623194108 76 321 2.0 7.0 0.00 0.20 0.00 78 1005.3
20180623193559 76 298 2.0 7.0 0.00 0.20 0.00 78 1005.8
20180623193110 76 317 1.0 5.0 0.00 0.20 0.00 77 1005.6
20180623192601 76 228 1.0 7.0 0.00 0.20 0.00 78 1005.5
20180623192112 76 258 1.0 7.0 0.00 0.20 0.00 78 1005.2
20180623191604 76 272 1.0 5.0 0.00 0.20 0.00 78 1005.5
20180623191055 75 272 2.0 6.0 0.00 0.20 0.00 80 1005.6
20180623190609 75 358 2.0 6.0 0.00 0.20 0.00 81 1005.5
20180623190059 74 332 2.0 6.0 0.00 0.20 0.00 82 1005.5
20180623185613 74 320 1.0 6.0 0.00 0.20 0.00 82 1005.3
20180623185103 74 253 0.0 7.0 0.00 0.20 0.00 83 1005.3
20180623184556 74 246 3.0 8.0 0.00 0.20 0.00 83 1005.6
20180623184105 73 295 3.0 8.0 0.00 0.20 0.00 83 1005.4
20180623183601 73 345 1.0 9.0 0.00 0.20 0.00 83 1006.0
20180623183053 73 341 2.0 10.0 0.00 0.20 0.00 82 1005.5
20180623182605 74 339 4.0 8.0 0.00 0.20 0.00 81 1005.5
20180623182054 73 4 5.0 8.0 0.00 0.20 0.00 82 1005.8
20180623181607 73 357 2.0 6.0 0.00 0.20 0.00 83 1006.1
20180623181059 73 359 1.0 6.0 0.00 0.20 0.00 83 1005.7
20180623180609 73 331 2.0 6.0 0.00 0.20 0.00 83 1005.5
20180623180102 73 256 1.0 6.0 0.00 0.20 0.00 83 1005.7
20180623175611 73 301 2.0 8.0 0.00 0.20 0.00 83 1005.4
20180623175103 74 231 5.0 8.0 0.00 0.20 0.00 82 1005.6
20180623174554 74 283 1.0 5.0 0.00 0.20 0.00 82 1005.5
20180623174108 74 358 2.0 6.0 0.00 0.20 0.00 81 1005.5
20180623173559 74 344 4.0 6.0 0.00 0.20 0.00 83 1005.7
20180623173050 74 355 0.0 8.0 0.00 0.20 0.00 81 1005.9
20180623172600 74 355 5.0 8.0 0.00 0.20 0.00 82 1005.3
20180623172052 73 340 1.0 5.0 0.00 0.20 0.00 83 1005.5
20180623171603 73 336 1.0 6.0 0.00 0.20 0.00 85 1005.6
20180623171106 73 322 2.0 6.0 0.00 0.20 0.00 85 1005.6
20180623170558 72 354 1.0 10.0 0.00 0.20 0.00 85 1005.3
20180623170109 72 357 4.0 10.0 0.00 0.20 0.00 86 1005.2
20180623165559 72 351 3.0 8.0 0.00 0.20 0.00 87 1005.6
20180623165050 72 349 4.0 8.0 0.00 0.20 0.00 88 1005.8
20180623164600 71 358 3.0 6.0 0.00 0.20 0.00 88 1005.5
20180623164056 71 359 3.0 7.0 0.00 0.20 0.00 89 1006.2
20180623163548 71 281 3.0 7.0 0.00 0.20 0.00 90 1005.5
20180623163100 71 286 3.0 11.0 0.00 0.20 0.00 91 1006.0
20180623162552 71 308 2.0 11.0 0.00 0.20 0.00 91 1005.4
20180623162045 70 336 1.0 9.0 0.00 0.20 0.00 93 1006.0
20180623161557 70 359 2.0 7.0 0.00 0.20 0.00 93 1005.9
20180623161049 70 329 0.0 5.0 0.00 0.20 0.00 93 1005.7
20180623160603 70 351 2.0 6.0 0.00 0.20 0.00 93 1005.9
20180623160055 70 310 2.0 7.0 0.00 0.20 0.00 94 1005.9
20180623155605 70 359 1.0 7.0 0.00 0.20 0.00 94 1005.8
20180623155055 70 358 2.0 6.0 0.00 0.20 0.00 94 1006.0
20180623154547 70 335 2.0 7.0 0.00 0.20 0.00 96 1005.9
20180623154101 69 354 3.0 9.0 0.00 0.20 0.00 96 1005.7
20180623153554 69 356 3.0 9.0 0.00 0.20 0.00 97 1005.8
20180623153044 70 335 0.0 5.0 0.00 0.20 0.00 97 1006.0
20180623152557 69 358 2.0 4.0 0.00 0.20 0.00 98 1005.7
20180623152048 69 358 2.0 6.0 0.00 0.20 0.00 98 1005.8
20180623151559 69 357 4.0 6.0 0.00 0.20 0.00 99 1005.7
20180623151053 69 354 2.0 7.0 0.00 0.20 0.00 99 1005.7
20180623150545 69 299 1.0 7.0 0.00 0.20 0.00 100 1005.6
20180623150043 69 356 4.0 8.0 0.00 0.20 0.00 100 1005.6
20180623145557 68 357 4.0 7.0 0.00 0.20 0.00 100 1005.4
20180623145050 68 354 4.0 7.0 0.00 0.20 0.00 100 1005.6
20180623144541 68 359 3.0 5.0 0.00 0.20 0.00 100 1005.5
20180623144055 68 359 0.0 4.0 0.00 0.20 0.00 100 1005.4
20180623143547 67 359 0.0 4.0 0.00 0.20 0.00 100 1005.3
20180623143059 67 359 2.0 5.0 0.00 0.20 0.00 100 1005.3
20180623142551 67 359 2.0 5.0 0.00 0.20 0.00 100 1005.0
20180623142042 67 359 3.0 5.0 0.00 0.20 0.00 100 1005.4
20180623141556 67 359 2.0 5.0 0.00 0.20 0.00 100 1005.3
20180623141049 67 357 1.0 4.0 0.00 0.20 0.00 100 1005.4
20180623140541 67 0 1.0 5.0 0.00 0.20 0.00 100 1005.2
20180623140053 67 1 2.0 5.0 0.00 0.20 0.00 100 1005.3
20180623135545 66 359 2.0 4.0 0.00 0.20 0.00 100 1005.3
20180623135056 66 359 1.0 4.0 0.00 0.20 0.00 100 1005.3
20180623134549 66 359 0.0 3.0 0.00 0.20 0.00 100 1005.4
20180623134039 66 359 1.0 5.0 0.00 0.20 0.00 100 1005.8
20180623133552 66 359 2.0 5.0 0.00 0.20 0.00 100 1005.3
20180623133043 66 359 0.0 5.0 0.00 0.20 0.00 100 1005.3
20180623132537 66 359 1.0 5.0 0.00 0.20 0.00 100 1005.5
20180623132051 66 2 2.0 4.0 0.00 0.20 0.00 100 1005.3
20180623131545 66 3 1.0 3.0 0.00 0.20 0.00 100 1005.4
20180623131056 66 358 0.0 4.0 0.00 0.20 0.00 100 1005.5
20180623130547 66 358 0.0 4.0 0.00 0.20 0.00 100 1005.5